Location: Praha
(50.0830°N, 14.4670°E)
Time: 00:29:48
(UTC+01:00)

ISS - Pass Details

Date: 28 November 2020
Orbit: 418 x 420 km, 51.6° (Epoch: 05 December)

Event Time Altitude Azimuth Distance (km) Brightness Sun altitude
Rises 18:11:23 0° 271° (W) 2,363 1.6 -19.6°
Reaches altitude 10° 18:13:30 10° 275° (W) 1,499 0.2 -19.9°
Enters shadow 18:16:41 63° 339° (NNW) 471 -3.6 -20.4°
